Home > Weather > Gitega > Past weeks

Flag for Burundi Weather for the Past 2 Weeks in Gitega, Burundi

Now
66 °F

Passing clouds.


Feels Like: 66 °F
Forecast: 58 / 73 °F
Wind: 5 mph from Northwest

Location: Kigali Airport

Current Time: May 5, 2016 at 4:09:31 AM

Latest Report: May 4, 2016 at 10:30 PM


Visibility: N/A

Pressure: 30.15 "Hg (24.77 "Hg at 1679m altitude)

Humidity: 94%

Dew Point: 64 °F

Location of GitegaLocation

Historic Weather in Gitega — Graph

°F

Gitega Temperature Yesterday

Maximum temperature yesterday: 79 °F (at 1:00 PM)
Minimum temperature yesterday: 64 °F (at 3:00 AM)
Average temperature yesterday: 72 °F

High & Low Weather Summary for the Past Weeks

 TemperatureHumidityPressure
High84 °F (Apr 22, 2:00 PM)100% (Apr 23, 3:30 AM)30.24 "Hg (Apr 23, 3:30 AM)
Low61 °F (Apr 20, 6:00 AM)48% (Apr 21, 2:30 PM)29.98 "Hg (Apr 23, 3:30 PM)
Average71 °F80%30.11 "Hg
* Reported Apr 19 11:30 PM — May 4 10:30 PM, Gitega, Weather by CustomWeather, © 2016

Note: Actual official high and low records may vary slightly from our data, if they occured in-between our weather recording intervals... More about our weather records

Advertising

Gitega Weather History for the Previous 24 Hours

Scroll right to see more
 ConditionsComfort  
Time TempWeatherWind HumidityBarometerVisibility
10:30 PM
Wed, May 4
66 °FPassing clouds.5 mph94%30.15 "HgN/A
9:00 PM66 °FMild.3 mph88%30.12 "HgN/A
8:30 PM66 °FMild.6 mph88%30.12 "HgN/A
7:01 PM68 °FThunderstorms. Passing clouds.12 mph94%30.09 "Hg2 mi
6:30 PM73 °FPassing clouds.6 mph78%30.07 "HgN/A
6:00 PM73 °FPassing clouds.6 mph74%30.04 "HgN/A
5:30 PM75 °FPartly sunny.2 mph69%30.04 "HgN/A
5:00 PM75 °FPartly sunny.2 mph69%30.07 "HgN/A
4:30 PM77 °FPartly sunny.1 mph69%30.07 "HgN/A
4:00 PM77 °FPartly sunny.2 mph69%30.07 "HgN/A
3:30 PM75 °FPartly sunny.7 mph74%30.04 "HgN/A
3:00 PM77 °FPartly sunny.9 mph61%30.07 "HgN/A
2:30 PM79 °FPartly sunny.8 mph61%30.07 "HgN/A
1:30 PM79 °FWarm.6 mph61%30.09 "Hg1 mi
1:00 PM79 °FPartly sunny.6 mph61%30.12 "HgN/A
12:30 PM77 °FPartly sunny.7 mph69%30.15 "HgN/A
12:00 PM77 °FPartly sunny.7 mph69%30.15 "HgN/A
11:30 AM75 °FScattered clouds.7 mph69%30.18 "HgN/A
10:30 AM75 °FScattered clouds.6 mph74%30.21 "HgN/A
10:00 AM75 °FScattered clouds.7 mph69%30.21 "HgN/A
9:00 AM68 °FPartly sunny.3 mph94%30.21 "Hg5 mi
8:30 AM68 °FPartly sunny.2 mph88%30.21 "HgN/A
8:00 AM68 °FPartly sunny.2 mph94%30.18 "HgN/A
7:30 AM66 °FPartly sunny.No wind94%30.18 "HgN/A
Weather by CustomWeather, © 2016

See weather overviewHow to use our weather pages